Regional Weather Roundup
Issued by NWS

Home | Current Version | Previous Version | Graphics & Text | Print | Product List | Glossary On
Versions: 1 2 3 4 5 6 7 8 9 10 11 12 13 14 15 16 17 18 19 20 21 22 23 24 25 26 27 28 29 30 31 32 33 34 35 36 37 38 39 40 41 42 43 44 45 46 47 48 49 50
000
ASUS43 KTOP 191259
RWRKS

WEATHER ROUNDUP FOR KANSAS
NATIONAL WEATHER SERVICE GOODLAND KS
800 AM CDT SUN APR 19 2015

NOTE:  "FAIR" INDICATES FEW OR NO CLOUDS BELOW 12,000 FEET WITH NO
SIGNIFICANT WEATHER AND/OR OBSTRUCTIONS TO VISIBILITY.

KSZ001>006-013>018-027>032-041>047-191400-
NORTHWEST KANSAS

CITY           SKY/WX    TMP DP  RH WIND       PRES   REMARKS
GOODLAND       LGT RAIN  43  42  97 N30G37    29.95R
HAYS           CLOUDY    52  43  71 N9        29.81R
HILL CITY      HVY RAIN  50  48  93 W12       29.86R FOG
RUSSELL        PTSUNNY   49  48  97 N6        29.78R
$$

KSZ061>065-074>080-084>089-191400-
SOUTHWEST KANSAS

CITY           SKY/WX    TMP DP  RH WIND       PRES   REMARKS
DODGE CITY     MOSUNNY   44  41  89 N12       29.81S FOG
ELKHART          N/A    N/A N/A N/A MISG        N/A
GARDEN CITY    PTSUNNY   45  44  97 N14       29.84R
GREAT BEND     PTSUNNY   46  43  87 N6        29.79S
LIBERAL        PTSUNNY   46  37  71 NW14      29.84R
$$

KSZ066>073-081>083-090>101-191400-
SOUTHEAST KANSAS

CITY           SKY/WX    TMP DP  RH WIND       PRES   REMARKS
CHANUTE        CLOUDY    54  53  97 NW7       29.73R
COFFEYVILLE    CLOUDY    54  53  97 CALM      29.72R
HUTCHINSON     MOSUNNY   51  49  92 W5        29.78R
MEDICINE LODGE   N/A     50  49  96 CALM      29.77S
NEWTON         PTSUNNY   50  45  81 NW8       29.79R
PARSONS        CLOUDY    55  54  96 W3        29.73R
WICHITA INTL   PTSUNNY   50  49  96 SW3       29.77R
WICHITA JABRA  PTSUNNY   51  50  96 W10       29.76R
WICHITA MCCONL MOSUNNY   52  50  93 W7        29.77R
WINFIELD       PTSUNNY   52  51  97 W9        29.81R
$$

KSZ007>012-019>026-033>040-048>060-102>105-191400-
NORTHEAST KANSAS

CITY           SKY/WX    TMP DP  RH WIND       PRES   REMARKS
CONCORDIA      CLOUDY    53  51  93 W5        29.76F
EMPORIA        CLOUDY    52  51  97 NW5       29.74R FOG
LAWRENCE       CLOUDY    54  52  93 NW7       29.72R
MANHATTAN      CLOUDY    54  52  93 CALM      29.75S
OLATHE IND     CLOUDY    53  53 100 NW5       29.72R
OLATHE EXE     CLOUDY    54  53  97 NW6       29.71R
SALINA         CLOUDY    52  49  89 NW8       29.78R
TOPEKA BILLARD CLOUDY    54  53  97 W7        29.74R
TOPEKA FORBES  CLOUDY    55  51  86 NW15      29.72R
$$


USA.gov is the U.S. government's official web portal to all federal, state and local government web resources and services.